S-NET C (43189 NORAD) Tracking and Keplerian Element Data

This shows tracking and keplerian element data for the satellite.

Feedback or suggestion? Click here.




ElementValue
Catalog43189
NameS-NET C
Epoch Orbit19797
Epoch Day269.54839707
Epoch Year2021
RAAN175.2297
Inclination97.6671
Eccentricity0.0012518
Argument of Perigee101.9317
Mean Anonmoly258.3309
Mean Motion14.97142607
Decay Rate9.97E-06
L11 43189U 18014K 21269.54839707 .00000997 00000-0 91183-4 0 9993
L22 43189 97.6671 175.2297 0012518 101.9317 258.3309 14.97142607197979

Live tracking and technical data element details for S-NET C (NORAD 43189). S-NET C can be tracked NOW for your location showing map with azimuth and elevation plus other details from your city location.

Track the satellite on the map from your city or location and see movement details for azimuth, elevation, latitude, longitude, range, height, and movement on the map or in text.







IsCatalogInMostPopularTable: catalog: 43189, numindb: 591
Update: records affected: 1



GetName: 43189 S-NET C

Hit Count: updated at: Tue, 28 Sep 2021 15:55:32 GMT